{"data":{"norad_id":65137,"intl_designator":"2025-171F","name":"KUIPER-00098","alt_names":[],"object_type":"PAYLOAD","status":"ACTIVE","operator":null,"country":"US","launch_date":"2025-08-11","launch_site_code":"AFETR","launch_vehicle":null,"mission":null,"orbit_class":"UNKNOWN","rcs_meters":null,"size_class":null,"mass_kg":null,"dimensions":null,"purposes":[],"wikipedia_slug":null,"has_3d_model":false,"image_url":null,"decayed_at":null,"tle_current":{"epoch":"2026-09-21T13:49:31.146816Z","epoch_age_seconds":71948,"freshness":"FRESH","line1":"1 65137U 25171F   26264.57605494  .00003974  00000+0  54975-3 0  9993","line2":"2 65137  51.9030  16.8851 0000513  83.1464 276.9557 14.79953134 61178","mean_motion":14.79953134,"eccentricity":5.13e-5,"inclination_deg":51.903,"raan_deg":16.8851,"arg_perigee_deg":83.1464,"mean_anomaly_deg":276.9557,"bstar":0.00054975,"rev_number":6117,"period_min":97.300378432119,"perigee_km":629.11258150139,"apogee_km":629.83156219216,"semimajor_km":7007.6090718468,"source":"CELESTRAK","updated_at":"2026-09-22T09:00:30.150397Z"}}}